Location: Unspecified
(43.4354°N, 0.0000°E)
Time: 17:17:16
(UTC+00:00)

SR - Pass Details

Date: 27 June 2019
Orbit: 578 x 878 km, 66.7° (Epoch: 16 August)

Event Time Altitude Azimuth Distance (km) Brightness Sun altitude
Exits shadow 02:26:49 28° 205° (SSW) 1,091 ? -15.5°
Maximum altitude 02:28:58 82° 120° (ESE) 593 ? -15.3°
Drops below altitude 10° 02:33:18 10° 33° (NNE) 1,941 ? -14.8°
Sets 02:35:36 0° 33° (NNE) 2,877 ? -14.6°
